Flag for United Kingdom

Past Weather in Cheltenham, England, United Kingdom — Yesterday and Last 2 Weeks

Now
61 °F

Scattered clouds.


Feels Like: 61 °F
Forecast: 66 / 46 °F
Wind: 8 mph from Northwest

Location: Staverton Private

Current Time: Jul 10, 2020 at 11:53:18 am

Latest Report: Jul 10, 2020 at 11:20 am


Visibility: N/A

Pressure: 30.09 "Hg

Humidity: 63%

Dew Point: 48 °F

Location of CheltenhamLocation

Past Weather in Cheltenham — Graph

°F

Cheltenham Temperature Yesterday

Maximum temperature yesterday: 66 °F (at 11:50 am)
Minimum temperature yesterday: 61 °F (at 4:20 pm)
Average temperature yesterday: 64 °F

High & Low Weather Summary for the Past Weeks

 TemperatureHumidityPressure
High86 °F (Jun 25, 12:20 pm)100% (Jul 8, 4:50 pm)30.18 "Hg (Jul 8, 4:50 pm)
Low57 °F (Jun 29, 8:50 am)40% (Jun 25, 12:20 pm)29.56 "Hg (Jun 27, 10:50 am)
Average64 °F74%29.85 "Hg
* Reported Jun 25 10:20 am — Jul 10 10:50 am, Cheltenham. Weather by CustomWeather, © 2020

Note: Actual official high and low records may vary slightly from our data, if they occured in-between our weather recording intervals... More about our weather records

Cheltenham Weather History for the Previous 24 Hours

Scroll right to see more
 ConditionsComfort  
Time TempWeatherWind HumidityBarometerVisibility
10:50 am
Fri, Jul 10
59 °FPartly sunny.8 mph68%30.09 "HgN/A
10:20 am59 °FScattered clouds.8 mph68%30.07 "HgN/A
9:50 am57 °FPassing clouds.8 mph77%30.07 "HgN/A
9:20 am57 °FPassing clouds.8 mph72%30.07 "HgN/A
5:50 pm
Thu, Jul 9
61 °FDrizzle. Mostly cloudy.7 mph94%29.86 "Hg2 mi
5:20 pm61 °FDrizzle. Mostly cloudy.7 mph94%29.86 "Hg2 mi
4:50 pm61 °FDrizzle. Mostly cloudy.9 mph94%29.86 "Hg2 mi
4:20 pm61 °FDrizzle. Partly sunny.9 mph100%29.83 "Hg3 mi
3:50 pm64 °FDrizzle. Partly sunny.5 mph94%29.83 "Hg3 mi
3:20 pm64 °FDrizzle. Broken clouds.7 mph94%29.83 "Hg2 mi
2:50 pm66 °FScattered showers. Partly sunny.9 mph83%29.83 "HgN/A
2:20 pm66 °FScattered showers. Partly sunny.10 mph83%29.83 "HgN/A
1:20 pm66 °FScattered showers. Broken clouds.9 mph83%29.83 "HgN/A
12:50 pm66 °FScattered showers. Partly sunny.12 mph83%29.83 "HgN/A
12:20 pm66 °FScattered showers. Broken clouds.12 mph88%29.83 "HgN/A
11:50 am66 °FScattered showers. Partly sunny.12 mph88%29.83 "HgN/A
11:20 am64 °FScattered clouds.12 mph88%29.83 "HgN/A
Weather by CustomWeather, © 2020

See weather overview